ADF AIRWAYS. MIAMI FLORIDA’S PREMIER FLIGHT TRAINING ACADEMY

Thank you for visiting ADF Airways. Located in Miami, Florida, ADF airways is a premier Flight Training school dedicated to helping those who want to learn how to fly. Whether you are a new student seeking a license to fly for fun, or an advanced pilot looking to get your ATP rating, we’re confident ADF Airways will exceed your expectations!

 

OVER 3 DECADES OF EXPERIENCE WITH A PERSONAL TOUCH

ADF Airways has been in the business of helping pilots since 1986. We take an individual approach to flight training, and can tailor your experience at whatever pace you choose. Our instructors have a combined experience of well over 40 years in the business, and we’re sure we will be able to help you live your dream. ADF Airways is :

  • An FAA-approved Part 141 Flight Academy (Part 61 training available)
  • Approved by the Department of Veterans Affairs (VA)
  • An experiecnced leader in helping students attatin a full range of ratings from Private Pilot to Airline Transport Pilot with Jet Transition training.
  • A strong partner that assists  foreign students to gain FAA ratings and student visas.
  • A quality centered organization that provides experienced Flight Instructors
  • A large provider of a wide range of single and multi-engine aircraft.

ADF Airways has been providing quality Flight instruction for over 3 decades. Established in 1986, we are located at the Kendall-Tamiami Executive Airport (TMB) in Miami, Florida. We have grown into an institution of more than 200 active students. ADF Airways is dedicated to giving each person the personal attention he or she deserves. Our experienced flight instructor staff truly enjoys teaching and giving their undivided attention to the wants and needs of each student. They here just to to help you succeed!

 

 

Our Programs and Services

ADF Airways offers a variety of programs to suit your needs. Click on any of the links below for more information

Private Pilot Course

Foreign License Conversion

Instrument Rating Course

Jet Transition Program

Commercial Pilot Course

CFI Course

FAA Testing Center

Facebook By Weblizar Powered By Weblizar

METARS

KTMB 281753Z AUTO 04007KT 29/21 A3001 RMK AO2 SLP161 T02890206 TSNO

KOPF 281753Z 04006KT 10SM CLR 27/20 A3002 RMK AO2 SLP168 T02720200 10272 20239 58006

KFLL 281753Z 00000KT 10SM -RA FEW035 SCT140 BKN200 23/21 A3001 RMK AO2 SLP163 P0005 60116 T02280206 10250 20222 58011 $

TAF INFORMATION

TAF KTMB 281733Z 2818/2918 08008KT P6SM SCT035 SCT100 FM290000 VRB03KT P6SM FEW030 FM291600 09008KT P6SM SCT035

TAF KOPF 281733Z 2818/2918 04008KT P6SM SCT045 FM290000 VRB03KT P6SM FEW030 FM291600 10006KT P6SM SCT035

TAF KFLL 281733Z 2818/2918 VRB05KT P6SM -SHRA SCT030 BKN060 FM282000 11008KT P6SM SCT035 FM290100 VRB03KT P6SM FEW030 FM291500 10008KT P6SM SCT035

EVENTS

advertisement